Weather History for Mosby, MO

Change the Weather History Date:

Tuesday, April 23, 2013

  Actual Average (KMKC) Record (KMKC)
Temperature  
Mean Temperature 42 °F -  
Max Temperature 51 °F 65 °F 81 °F (2009)
Min Temperature 33 °F 47 °F 35 °F (2013)
Degree Days  
Heating Degree Days 23    
Moisture  
Dew Point 34 °F    
Average Humidity 89    
Maximum Humidity 94    
Minimum Humidity 75    
Precipitation  
Precipitation 0.00 in - - ()
Sea Level Pressure  
Sea Level Pressure 30.09 in    
Wind  
Wind Speed 14 mph (NNW)    
Max Wind Speed 22 mph    
Max Gust Speed 30 mph    
Visibility 8 miles    
Events Rain , Snow    
Averages and records for this station are not official NWS values.
T = Trace of Precipitation, MM = Missing Value Source: NWS Daily Summary

Daily Weather History Graph

Daily Weather History Graph

Search for Another Location

Airport:

Trip Planner

Search our weather history database for the weather conditions in past years. The results will help you decide how hot, cold, wet, or windy it might be!

Date:

Astronomy

Apr. 23, 2013 Rise Set
Actual Time 6:28 AM CDT 8:03 PM CDT
Civil Twilight 6:00 AM CDT 8:31 PM CDT
Nautical Twilight 5:26 AM CDT 9:05 PM CDT
Astronomical Twilight 4:49 AM CDT 9:42 PM CDT
Moon 5:59 PM CDT (4/23) 4:56 AM CDT (4/23)
Length of Visible Light 14h 31m
Length of Day
13h 34m
Waxing Gibbous, 94% of the Moon is Illuminated
Apr 23
Waxing Gibbous
Apr 25
Full
May 2
Last Quarter
May 9
New
May 17
First Quarter

Hourly Weather History & Observations

Time (CDT) Temp. Windchill Dew Point Humidity Pressure Visibility Wind Dir Wind Speed Gust Speed Precip Events Conditions
12:15 AM 51.8 °F - 50.0 °F 94% 30.01 in 10.0 mi NNW 12.7 mph - N/A   Overcast
12:35 AM 48.2 °F - 44.6 °F 87% 30.03 in 10.0 mi NNW 16.1 mph - N/A   Overcast
12:55 AM 46.4 °F 40.4 °F 42.8 °F 87% 30.03 in 10.0 mi NNW 13.8 mph 19.6 mph N/A   Overcast
1:15 AM 44.6 °F 36.1 °F 42.8 °F 93% 30.06 in 10.0 mi NNW 21.9 mph 28.8 mph N/A Rain Light Rain
1:35 AM 44.6 °F 37.2 °F 41.0 °F 87% 30.10 in 10.0 mi NW 17.3 mph 21.9 mph N/A Rain Light Rain
1:55 AM 42.8 °F 34.5 °F 39.2 °F 87% 30.00 in 10.0 mi North 18.4 mph 21.9 mph N/A Rain Light Rain
2:15 AM 42.8 °F 36.2 °F 39.2 °F 87% 30.03 in 10.0 mi NNW 12.7 mph 20.7 mph N/A   Light Drizzle
2:35 AM 41.0 °F 34.3 °F 39.2 °F 93% 30.05 in 10.0 mi NW 11.5 mph 21.9 mph N/A   Overcast
2:55 AM 41.0 °F 36.4 °F 37.4 °F 87% 30.05 in 10.0 mi NNW 6.9 mph 26.5 mph N/A Rain Light Rain
3:15 AM 41.0 °F 32.8 °F 37.4 °F 87% 30.07 in 10.0 mi NNW 16.1 mph 20.7 mph N/A Rain Light Rain
3:35 AM 39.2 °F 30.2 °F 35.6 °F 87% 30.06 in 10.0 mi NNW 17.3 mph 25.3 mph N/A Rain Light Rain
3:55 AM 37.4 °F 27.8 °F 35.6 °F 93% 30.05 in 10.0 mi North 17.3 mph 26.5 mph N/A Rain Rain
4:15 AM 37.4 °F 26.9 °F 35.6 °F 93% 30.04 in 7.0 mi North 20.7 mph 24.2 mph N/A Rain Light Rain
4:35 AM 37.4 °F 28.5 °F 35.6 °F 93% 30.05 in 10.0 mi NNW 15.0 mph 24.2 mph N/A Rain Light Rain
4:55 AM 37.4 °F 28.5 °F 33.8 °F 87% 30.08 in 7.0 mi NNW 15.0 mph 21.9 mph N/A Rain Light Rain
5:15 AM 37.4 °F 27.8 °F 33.8 °F 87% 30.07 in 10.0 mi NNW 17.3 mph - N/A Rain Light Rain
5:35 AM 35.6 °F 24.8 °F 33.8 °F 93% 30.05 in 5.0 mi North 19.6 mph 29.9 mph N/A Rain Light Rain
5:55 AM 35.6 °F 25.5 °F 33.8 °F 93% 30.03 in 3.0 mi North 17.3 mph 29.9 mph N/A Snow Light Snow
6:15 AM 35.6 °F 26.6 °F 33.8 °F 93% 30.05 in 7.0 mi NNW 13.8 mph 17.3 mph N/A Rain Light Rain
6:35 AM 35.6 °F 24.2 °F 33.8 °F 93% 30.05 in 4.0 mi North 21.9 mph - N/A Rain Light Rain
6:55 AM 35.6 °F 26.2 °F 33.8 °F 93% 30.05 in 7.0 mi North 15.0 mph 20.7 mph N/A Rain Light Rain
7:15 AM 35.6 °F 25.5 °F 33.8 °F 93% 30.03 in 10.0 mi North 17.3 mph 23.0 mph N/A Rain Light Rain
7:35 AM 35.6 °F 26.6 °F 33.8 °F 93% 30.05 in 10.0 mi North 13.8 mph 20.7 mph N/A   Overcast
7:55 AM 35.6 °F 25.9 °F 32.0 °F 87% 30.07 in 10.0 mi NNW 16.1 mph 21.9 mph N/A Rain Light Rain
8:15 AM 35.6 °F 25.5 °F 33.8 °F 93% 30.06 in 4.0 mi North 17.3 mph 23.0 mph N/A   Unknown
8:35 AM 35.6 °F 27.1 °F 33.8 °F 93% 30.08 in 7.0 mi NNW 12.7 mph - N/A Rain Light Rain
8:55 AM 35.6 °F 24.8 °F 33.8 °F 93% 30.09 in 10.0 mi North 19.6 mph 24.2 mph N/A   Drizzle
9:15 AM 35.6 °F 27.1 °F 33.8 °F 93% 30.12 in 5.0 mi NW 12.7 mph 19.6 mph N/A Rain Light Rain
9:55 AM 33.8 °F 23.5 °F 32.0 °F 93% 30.09 in 7.0 mi North 16.1 mph 21.9 mph N/A Rain Light Rain
10:15 AM 33.8 °F 24.3 °F 32.0 °F 93% 30.09 in 10.0 mi North 13.8 mph 23.0 mph N/A   Light Drizzle
10:35 AM 33.8 °F 24.3 °F 32.0 °F 93% 30.10 in 10.0 mi North 13.8 mph - N/A   Overcast
10:55 AM 33.8 °F 24.8 °F 32.0 °F 93% 30.10 in 10.0 mi NNW 12.7 mph 17.3 mph N/A Rain Light Rain
11:15 AM 33.8 °F 23.5 °F 32.0 °F 93% 30.10 in 5.0 mi North 16.1 mph 20.7 mph N/A   Light Drizzle
11:35 AM 33.8 °F 24.3 °F 32.0 °F 93% 30.10 in 5.0 mi North 13.8 mph - N/A   Light Drizzle
11:55 AM 33.8 °F 23.9 °F 32.0 °F 93% 30.11 in 5.0 mi NNW 15.0 mph 19.6 mph N/A   Light Drizzle
12:15 PM 33.8 °F 23.2 °F 32.0 °F 93% 30.10 in 5.0 mi North 17.3 mph 24.2 mph N/A   Overcast
12:35 PM 33.8 °F 24.3 °F 32.0 °F 93% 30.10 in 5.0 mi North 13.8 mph - N/A   Overcast
12:55 PM 33.8 °F 23.9 °F 32.0 °F 93% 30.10 in 5.0 mi North 15.0 mph 20.7 mph N/A   Drizzle
1:15 PM 33.8 °F 23.9 °F 32.0 °F 93% 30.10 in 7.0 mi NNW 15.0 mph 20.7 mph N/A   Light Drizzle
1:35 PM 35.6 °F 27.5 °F 32.0 °F 87% 30.09 in 7.0 mi NNW 11.5 mph 17.3 mph N/A   Overcast
1:55 PM 35.6 °F 27.1 °F 32.0 °F 87% 30.09 in 5.0 mi NNW 12.7 mph - N/A   Drizzle
2:15 PM 35.6 °F 25.9 °F 32.0 °F 87% 30.10 in 7.0 mi NNW 16.1 mph 20.7 mph N/A   Overcast
2:35 PM 35.6 °F 26.6 °F 32.0 °F 87% 30.10 in 7.0 mi NNW 13.8 mph 19.6 mph N/A   Overcast
2:55 PM 35.6 °F 27.1 °F 33.8 °F 93% 30.10 in 7.0 mi NNW 12.7 mph 18.4 mph N/A   Overcast
3:15 PM 35.6 °F 27.1 °F 33.8 °F 93% 30.10 in 7.0 mi North 12.7 mph - N/A   Light Drizzle
3:35 PM 35.6 °F 27.1 °F 33.8 °F 93% 30.09 in 10.0 mi North 12.7 mph - N/A   Overcast
3:55 PM 35.6 °F 26.2 °F 33.8 °F 93% 30.08 in 10.0 mi North 15.0 mph - N/A   Overcast
4:15 PM 35.6 °F 28.0 °F 33.8 °F 93% 30.09 in 10.0 mi NNW 10.4 mph 20.7 mph N/A   Overcast
4:35 PM 37.4 °F 28.2 °F 33.8 °F 87% 30.08 in 10.0 mi North 16.1 mph - N/A   Overcast
4:55 PM 37.4 °F 27.8 °F 32.0 °F 81% 30.09 in 10.0 mi North 17.3 mph - N/A   Overcast
5:15 PM 37.4 °F 28.2 °F 32.0 °F 81% 30.09 in 10.0 mi NNW 16.1 mph - N/A   Overcast
5:35 PM 37.4 °F 28.5 °F 32.0 °F 81% 30.09 in 10.0 mi NNW 15.0 mph - N/A   Overcast
5:55 PM 37.4 °F 29.8 °F 32.0 °F 81% 30.09 in 10.0 mi North 11.5 mph - N/A   Unknown
6:15 PM 37.4 °F 29.8 °F 33.8 °F 87% 30.09 in 10.0 mi NNW 11.5 mph 17.3 mph N/A   Overcast
6:35 PM 37.4 °F 30.8 °F 33.8 °F 87% 30.09 in 10.0 mi NNW 9.2 mph - N/A   Overcast
6:55 PM 37.4 °F 30.3 °F 32.0 °F 81% 30.09 in 10.0 mi NW 10.4 mph - N/A   Unknown
7:15 PM 37.4 °F 32.1 °F 32.0 °F 81% 30.10 in 10.0 mi NNW 6.9 mph - N/A   Overcast
7:35 PM 37.4 °F 32.8 °F 32.0 °F 81% 30.10 in 10.0 mi NNW 5.8 mph - N/A   Overcast
7:55 PM 37.4 °F 33.8 °F 33.8 °F 87% 30.10 in 10.0 mi WNW 4.6 mph - N/A   Overcast
8:15 PM 37.4 °F - 33.8 °F 87% 30.10 in 10.0 mi Calm Calm - N/A   Overcast
8:35 PM 37.4 °F 34.9 °F 33.8 °F 87% 30.11 in 10.0 mi West 3.5 mph - N/A   Overcast
8:55 PM 37.4 °F - 33.8 °F 87% 30.11 in 10.0 mi Calm Calm - N/A   Overcast
9:15 PM 37.4 °F 34.9 °F 33.8 °F 87% 30.13 in 10.0 mi WNW 3.5 mph - N/A   Overcast
9:35 PM 37.4 °F 33.8 °F 33.8 °F 87% 30.13 in 10.0 mi WNW 4.6 mph - N/A   Overcast
9:55 PM 39.2 °F 35.0 °F 33.8 °F 81% 30.14 in 10.0 mi NW 5.8 mph - N/A   Overcast
10:15 PM 39.2 °F 30.8 °F 32.0 °F 75% 30.14 in 10.0 mi NW 15.0 mph 24.2 mph N/A   Overcast
10:35 PM 37.4 °F 28.2 °F 32.0 °F 81% 30.17 in 10.0 mi North 16.1 mph 23.0 mph N/A Rain Light Rain
10:55 PM 35.6 °F 28.0 °F 32.0 °F 87% 30.17 in 7.0 mi NNW 10.4 mph - N/A Rain Light Rain
11:15 PM 35.6 °F 30.7 °F 33.8 °F 93% 30.17 in 4.0 mi NW 5.8 mph - N/A Rain Light Rain
11:35 PM 35.6 °F 31.7 °F 33.8 °F 93% 30.17 in 7.0 mi NW 4.6 mph - N/A Rain Light Rain
11:55 PM 35.6 °F 30.7 °F 33.8 °F 93% 30.17 in 7.0 mi NNW 5.8 mph - N/A Rain Light Rain